Weather History for Whiteman AFB, MO

Change the Weather History Date:

Saturday, March 23, 2013

  Actual Average Record
Temperature  
Mean Temperature 36 °F -  
Max Temperature 41 °F 56 °F 75 °F (2009)
Min Temperature 32 °F 35 °F 23 °F (2002)
Degree Days  
Heating Degree Days 28    
Moisture  
Dew Point 34 °F    
Average Humidity 92    
Maximum Humidity 100    
Minimum Humidity 68    
Precipitation  
Precipitation 0.34 in - - ()
Sea Level Pressure  
Sea Level Pressure 29.93 in    
Wind  
Wind Speed 9 mph (NE)    
Max Wind Speed 18 mph    
Max Gust Speed -    
Visibility 8 miles    
Events Rain , Snow    
Averages and records for this station are not official NWS values.
T = Trace of Precipitation, MM = Missing Value Source: NWS Daily Summary

Daily Weather History Graph

Daily Weather History Graph

Search for Another Location

Airport:

Trip Planner

Search our weather history database for the weather conditions in past years. The results will help you decide how hot, cold, wet, or windy it might be!

Date:

Astronomy

Mar. 23, 2013 Rise Set
Actual Time 7:12 AM CDT 7:29 PM CDT
Civil Twilight 6:46 AM CDT 7:55 PM CDT
Nautical Twilight 6:14 AM CDT 8:27 PM CDT
Astronomical Twilight 5:43 AM CDT 8:58 PM CDT
Moon 3:58 PM CDT (3/23) 4:47 AM CDT (3/23)
Length of Visible Light 13h 09m
Length of Day
12h 16m
Waxing Gibbous, 85% of the Moon is Illuminated
Mar 23
Waxing Gibbous
Mar 27
Full
Apr 2
Last Quarter
Apr 10
New
Apr 18
First Quarter

Hourly Weather History & Observations

Time (CDT) Temp. Windchill Dew Point Humidity Pressure Visibility Wind Dir Wind Speed Gust Speed Precip Events Conditions
12:23 AM 33.8 °F 27.7 °F 33.8 °F 100% 30.00 in 5.0 mi NE 6.9 mph - N/A   Overcast
12:28 AM 33.8 °F 28.6 °F 33.8 °F 100% 30.00 in 6.0 mi NE 5.8 mph - N/A   Overcast
12:38 AM 33.8 °F 28.6 °F 33.8 °F 100% 30.00 in 7.0 mi NE 5.8 mph - N/A   Overcast
12:58 AM 34.3 °F 30.2 °F 34.3 °F 100% 30.03 in 9.0 mi NE 4.6 mph - N/A   Overcast
1:03 AM 33.8 °F 28.6 °F 33.8 °F 100% 30.00 in 10.0 mi NE 5.8 mph - N/A   Overcast
1:18 AM 33.8 °F 28.6 °F 33.8 °F 100% 29.99 in 10.0 mi NE 5.8 mph - N/A   Overcast
1:38 AM 32.0 °F 26.4 °F 32.0 °F 100% 30.00 in 9.0 mi NNE 5.8 mph - N/A   Overcast
1:53 AM 32.0 °F 26.4 °F 32.0 °F 100% 30.00 in 10.0 mi NNE 5.8 mph - N/A   Overcast
1:58 AM 33.4 °F 27.3 °F 33.4 °F 100% 30.03 in 10.0 mi NE 6.9 mph - N/A   Overcast
2:58 AM 33.6 °F 27.5 °F 33.4 °F 99% 30.01 in 10.0 mi NE 6.9 mph - N/A   Overcast
3:58 AM 33.4 °F 27.3 °F 33.3 °F 99% 30.00 in 10.0 mi NE 6.9 mph - N/A   Overcast
4:58 AM 33.1 °F 27.7 °F 32.7 °F 99% 30.00 in 10.0 mi NE 5.8 mph - N/A   Overcast
5:08 AM 32.0 °F 25.6 °F 32.0 °F 100% 29.97 in 10.0 mi NE 6.9 mph - N/A   Overcast
5:58 AM 33.4 °F 26.6 °F 32.0 °F 94% 30.01 in 10.0 mi ENE 8.1 mph - N/A   Overcast
6:58 AM 33.4 °F 26.6 °F 32.0 °F 94% 30.01 in 10.0 mi NE 8.1 mph - N/A   Overcast
7:58 AM 34.0 °F 27.2 °F 31.5 °F 90% 30.02 in 10.0 mi ENE 8.1 mph - N/A   Overcast
8:58 AM 34.7 °F 27.5 °F 31.3 °F 87% 30.03 in 10.0 mi ENE 9.2 mph - N/A   Overcast
9:58 AM 36.3 °F 28.4 °F 31.3 °F 82% 30.02 in 10.0 mi ENE 11.5 mph - N/A   Overcast
10:58 AM 37.8 °F 31.3 °F 31.5 °F 78% 30.04 in 10.0 mi ENE 9.2 mph - N/A   Overcast
11:58 AM 38.5 °F 31.6 °F 30.7 °F 74% 30.04 in 10.0 mi ENE 10.4 mph - N/A   Overcast
12:58 PM 38.8 °F 30.4 °F 30.6 °F 72% 30.01 in 10.0 mi NE 15.0 mph - N/A   Overcast
1:58 PM 40.3 °F 32.6 °F 31.6 °F 71% 29.96 in 10.0 mi ENE 13.8 mph - N/A   Overcast
2:58 PM 41.4 °F 33.6 °F 31.5 °F 68% 29.92 in 10.0 mi ENE 15.0 mph - N/A   Overcast
3:08 PM 41.0 °F 33.5 °F 32.0 °F 70% 29.88 in 5.0 mi ENE 13.8 mph - N/A Rain Light Rain
3:32 PM 41.0 °F 34.3 °F 32.0 °F 70% 29.88 in 10.0 mi NE 11.5 mph - N/A   Overcast
3:53 PM 41.0 °F 34.3 °F 33.8 °F 76% 29.87 in 10.0 mi NE 11.5 mph - N/A   Light Drizzle
3:58 PM 41.0 °F 34.3 °F 33.6 °F 75% 29.90 in 10.0 mi NE 11.5 mph - 0.01 in   Light Drizzle
4:03 PM 41.0 °F 34.3 °F 32.0 °F 70% 29.87 in 10.0 mi NE 11.5 mph - N/A   Light Drizzle
4:06 PM 41.0 °F 34.7 °F 32.0 °F 70% 29.87 in 10.0 mi NE 10.4 mph - N/A   Overcast
4:09 PM 41.0 °F 34.7 °F 32.0 °F 70% 29.87 in 10.0 mi NE 10.4 mph - N/A Rain Light Rain
4:29 PM 41.0 °F 36.4 °F 32.0 °F 70% 29.88 in 10.0 mi ENE 6.9 mph - N/A   Light Drizzle
4:58 PM 40.1 °F 34.1 °F 34.9 °F 82% 29.91 in 9.0 mi ENE 9.2 mph - 0.01 in Rain Light Rain
5:13 PM 39.2 °F 33.0 °F 35.6 °F 87% 29.88 in 6.0 mi NE 9.2 mph - N/A Rain Light Rain
5:58 PM 38.3 °F 30.1 °F 38.1 °F 99% 29.90 in 5.0 mi NE 13.8 mph - 0.07 in Rain Rain
6:08 PM 37.4 °F 30.3 °F 37.4 °F 100% 29.86 in 5.0 mi ENE 10.4 mph - N/A Rain Light Rain
6:18 PM 37.4 °F 28.5 °F 37.4 °F 100% 29.86 in 6.0 mi ENE 15.0 mph - N/A Rain Light Rain
6:23 PM 37.4 °F 29.3 °F 37.4 °F 100% 29.86 in 6.0 mi ENE 12.7 mph - N/A Rain Light Rain
6:58 PM 37.8 °F 29.4 °F 37.6 °F 99% 29.89 in 10.0 mi NE 13.8 mph - 0.04 in Rain Light Rain
7:08 PM 37.4 °F 28.9 °F 37.4 °F 100% 29.86 in 10.0 mi NE 13.8 mph - N/A Rain Light Rain
7:13 PM 37.4 °F 29.3 °F 37.4 °F 100% 29.86 in 10.0 mi NE 12.7 mph - N/A Rain Light Rain
7:33 PM 37.4 °F 29.3 °F 37.4 °F 100% 29.87 in 10.0 mi NE 12.7 mph - N/A Rain Light Rain
7:43 PM 37.4 °F 29.3 °F 37.4 °F 100% 29.87 in 7.0 mi NNE 12.7 mph - N/A Rain Light Rain
7:58 PM 36.9 °F 28.7 °F 36.9 °F 100% 29.89 in 6.0 mi NNE 12.7 mph - 0.01 in Rain Rain
8:08 PM 37.4 °F 29.8 °F 37.4 °F 100% 29.87 in 5.0 mi NNE 11.5 mph - N/A Rain Light Rain
8:23 PM 35.6 °F 26.6 °F 35.6 °F 100% 29.86 in 6.0 mi NNE 13.8 mph - N/A Rain Light Rain
8:38 PM 35.6 °F 26.2 °F 35.6 °F 100% 29.88 in 7.0 mi NNE 15.0 mph - N/A Rain Light Rain
8:43 PM 35.6 °F 26.6 °F 35.6 °F 100% 29.88 in 5.0 mi NNE 13.8 mph - N/A Rain Light Rain
8:48 PM 35.6 °F 26.2 °F 35.6 °F 100% 29.88 in 5.0 mi NNE 15.0 mph - N/A Rain Light Rain
8:58 PM 35.4 °F 25.6 °F 35.4 °F 100% 29.90 in 3.0 mi NNE 16.1 mph - 0.06 in Rain Rain
9:38 PM 33.8 °F 23.9 °F 33.8 °F 100% 29.89 in 5.0 mi NNE 15.0 mph - N/A   Overcast
9:46 PM 33.8 °F 23.9 °F 33.8 °F 100% 29.88 in 4.0 mi NNE 15.0 mph - N/A Snow Light Snow
9:55 PM 32.0 °F 23.0 °F 32.0 °F 100% 29.92 in 3.0 mi NNE 11.5 mph - 0.05 in Snow Light Snow
9:58 PM 33.6 °F 25.0 °F 33.6 °F 100% 29.92 in 4.0 mi NNE 11.5 mph - 0.05 in Snow Light Snow
10:28 PM 32.0 °F 24.2 °F 32.0 °F 100% 29.90 in 3.0 mi NNE 9.2 mph - N/A Snow Light Snow
10:58 PM 32.5 °F 23.2 °F 32.5 °F 100% 29.93 in 3.0 mi North 12.7 mph - 0.06 in Snow Light Snow
11:30 PM 32.0 °F 22.1 °F 32.0 °F 100% 29.88 in 2.0 mi NNE 13.8 mph - N/A Snow Light Snow
11:58 PM 32.5 °F 21.2 °F 32.5 °F 100% 29.88 in 3.0 mi NNE 18.4 mph - 0.03 in Snow Light Snow